CDT,Max TemperatureF,Mean TemperatureF,Min TemperatureF,Max Dew PointF,MeanDew PointF,Min DewpointF,Max Humidity, Mean Humidity, Min Humidity, Max Sea Level PressureIn, Mean Sea Level PressureIn, Min Sea Level PressureIn, Max VisibilityMiles, Mean VisibilityMiles, Min VisibilityMiles, Max Wind SpeedMPH, Mean Wind SpeedMPH, Max Gust SpeedMPH,PrecipitationIn, CloudCover, Events, WindDirDegrees
2013-3-1,32,29,25,30,26,21,100,89,78,30.22,30.13,30.05,10,5,2,15,9,18,0.05,8,Snow,355
2013-3-2,32,24,16,21,16,12,88,71,53,30.25,30.23,30.18,10,10,10,20,10,24,0.00,4,,334
2013-3-3,33,23,13,22,16,9,100,75,49,30.23,30.15,30.09,10,10,7,9,3,10,0.00,3,,213
2013-3-4,39,35,30,29,27,21,85,75,64,30.09,29.94,29.87,10,10,10,23,14,33,0.01,6,Rain,107
2013-3-5,36,33,30,32,28,22,96,80,63,30.08,29.90,29.84,10,5,0,29,15,40,0.12,8,Fog-Rain-Snow,313
2013-3-6,31,29,26,24,22,19,81,77,72,30.38,30.31,30.12,10,10,10,24,12,33,0.00,7,,325
2013-3-7,39,33,26,28,24,20,85,72,59,30.45,30.40,30.36,10,10,10,12,4,15,0.00,5,,121
2013-3-8,48,36,24,35,30,23,85,73,60,30.46,30.38,30.24,10,9,7,17,10,23,0.01,0,Rain,126
2013-3-9,57,48,38,41,36,31,85,70,54,30.22,30.01,29.80,10,10,8,28,15,33,0.12,5,Rain,145
2013-3-10,54,51,47,52,49,41,100,86,71,29.79,29.71,29.65,10,6,1,24,10,31,1.28,8,Rain,202
2013-3-11,47,40,32,46,32,26,96,86,75,29.96,29.78,29.66,10,9,4,26,16,33,T,8,Rain,263
2013-3-12,43,35,27,32,25,17,81,68,54,30.19,30.07,29.95,10,9,2,28,15,37,T,5,Snow,280
2013-3-13,38,31,24,21,18,15,81,61,40,30.42,30.34,30.18,10,10,10,25,12,32,0.00,3,,302
2013-3-14,48,36,23,33,25,18,81,67,52,30.40,30.26,30.13,10,10,9,23,10,28,T,3,,169
2013-3-15,61,46,30,44,36,27,92,71,49,30.10,29.89,29.66,10,10,8,17,5,21,0.00,0,,160
2013-3-16,47,40,33,43,34,28,100,80,60,30.10,29.90,29.62,10,7,0,22,10,26,0.00,6,Fog,3
2013-3-17,41,36,31,32,27,22,96,78,59,30.16,30.04,29.88,10,9,5,21,13,25,0.05,7,Rain-Snow,71
2013-3-18,47,37,27,36,32,20,100,75,49,30.02,29.77,29.69,10,7,1,26,12,33,0.05,7,Rain,327
2013-3-19,44,34,24,20,16,13,68,50,32,30.20,30.13,29.99,10,10,10,22,13,28,0.00,0,,274
2013-3-20,32,26,20,20,10,6,69,53,36,30.26,30.19,30.13,10,10,10,25,15,32,0.00,1,,307
2013-3-21,36,25,14,17,10,7,73,53,32,30.16,30.09,30.03,10,10,10,12,4,15,0.00,0,,356
2013-3-22,42,30,17,24,17,13,92,61,30,30.10,30.06,30.02,10,10,10,12,3,18,0.00,4,,162
2013-3-23,53,43,33,26,24,20,69,51,32,30.10,30.01,29.92,10,10,10,21,9,28,T,5,,57
2013-3-24,35,33,30,31,29,25,100,82,64,29.96,29.75,29.58,10,2,0,25,17,33,1.55,8,Fog-Snow,16
2013-3-25,35,32,28,29,26,24,92,78,64,30.17,29.90,29.76,10,5,1,23,14,29,0.09,8,Snow,316
2013-3-26,38,34,30,26,23,19,78,63,48,30.35,30.28,30.18,10,10,10,18,10,23,0.00,5,,291
2013-3-27,40,31,22,25,22,17,85,68,50,30.41,30.37,30.34,10,10,10,10,5,13,0.00,2,,253
2013-3-28,48,34,20,31,25,19,100,75,49,30.41,30.36,30.31,10,10,7,12,5,14,0.00,0,,118
2013-3-29,58,46,33,36,32,28,82,61,40,30.31,30.27,30.23,10,10,10,13,5,15,0.00,2,,88
2013-3-30,55,45,35,45,40,32,93,79,64,30.23,30.07,29.92,10,9,7,22,10,28,T,2,Rain,166
2013-3-31,64,52,40,47,42,28,100,71,42,29.96,29.88,29.83,10,8,4,22,11,31,0.00,5,,279